Tracking 23731 objects as of 26-Sep-2021
HD Live streaming from Space Station
objects crossing your sky now

STARLINK-1167

Track STARLINK-1167 now!
10-day predictions
STARLINK-1167 is classified as:


NORAD ID: 45071
Int'l Code: 2020-006AD
Perigee: 553.5 km
Apogee: 555.2 km
Inclination: 53.1 °
Period: 95.6 minutes
Semi major axis: 6925 km
RCS: Unknown
Launch date: January 29, 2020
Source: United States (US)
Launch site: AIR FORCE EASTERN TEST RANGE (AFETR)
aabbcc
Your satellite tracking list
Your tracking list is empty




NASA's NSSDC Master Catalog

Two Line Element Set (TLE):
1 45071U 20006AD  21268.95875743  .00000435  00000-0  48076-4 0  9993
2 45071  53.0564   4.8147 0001183 108.2584 251.8534 15.06398855 91702
Source of the keplerian elements: AFSPC